User: anonymous   Login
Location: Unspecified
(0.0000°N, 0.0000°E)
Time: 07:20:55
(UTC+00:00)
Language:

USA 234 - Orbit

View from above orbital plane
View from above orbital plane
View from above satellite
View from above satellite

Ground track
Ground track

The orbit data is extracted from the following two-line orbital elements,

1 38109U 12014A   17219.05714930 0.00000000  00000-0  00000-0 0    01
2 38109 123.0006 153.1747 0004000 208.2528 151.7472 13.41417339    07
Epoch (UTC): 07 August 2017 01:22:17
Eccentricity: 0.0004000
inclination: 123.0006°
perigee height: 1101 km
apogee height: 1107 km
right ascension of ascending node: 153.1747°
argument of perigee: 208.2528°
revolutions per day: 13.41417339
mean anomaly at epoch: 151.7472°
orbit number at epoch: 0

The dashed part of the orbit path shows where the satellite is in the earth's shadow,  

DLR